Zurück zum Katalog

STARLINK-32737

AktivKommunikationVLEO
NORAD 62444·PAYLOAD·🇺🇸 United States

Gestartet Dec 29, 2024 von Vandenberg Space Force Base

Loading…

Nächste Überflüge (nächste 24 Stunden)

TLE

AktuellSource: CelesTrak SupGP

Epoche: Sep 14, 2026, 22:23 UTC

1 62444C 24251N   26257.93312500 -.00047320  00000+0 -13974-2 0  2579
2 62444  53.1574 171.5398 0001363  96.1840 108.9720 15.34429397    17

Verfolge STARLINK-32737 in Echtzeit mit AllMySat

Download on the App Store